Weather History for KUNI - January, 2012

Change the Weather History Date:

Sunday, January 29, 2012

  Actual Average (KPKB) Record (KPKB)
Temperature  
Mean Temperature 35 °F 32 °F  
Max Temperature 46 °F 40 °F 73 °F (1903)
Min Temperature 24 °F 24 °F -11 °F (2014)
Degree Days  
Heating Degree Days 30 33  
Month to date heating degree days 972  
Cooling Degree Days 0 0  
Month to date cooling degree days 0  
Year to date cooling degree days 0  
Moisture  
Dew Point 18 °F    
Average Humidity 54    
Maximum Humidity 75    
Minimum Humidity 29    
Precipitation  
Precipitation 0.00 in 0.09 in 0.88 in (2008)
Month to date precipitation 2.75  
Year to date precipitation 2.75  
Sea Level Pressure  
Sea Level Pressure 30.17 in    
Wind  
Wind Speed 7 mph (SW)    
Max Wind Speed 30 mph    
Max Gust Speed 46 mph    
Visibility 10 miles    
Events Snow    
T = Trace of Precipitation, MM = Missing Value Source: NWS Daily Summary

Daily Weather History Graph

Daily Weather History Graph

Search for Another Location

Airport or City:

Trip Planner

Search our weather history database for the weather conditions in past years. The results will help you decide how hot, cold, wet, or windy it might be!

Date:

Astronomy

Jan. 29, 2012 Rise Set
Actual Time 7:38 AM EST 5:45 PM EST
Civil Twilight 7:10 AM EST 6:14 PM EST
Nautical Twilight 6:38 AM EST 6:46 PM EST
Astronomical Twilight 6:06 AM EST 7:17 PM EST
Moon 10:32 AM EST (1/29) No Moon Set
Length of Visible Light 11h 03m
Length of Day
10h 06m
Waxing Crescent, 36% of the Moon is Illuminated
Jan 29
Waxing Crescent
Jan 30
First Quarter
Feb 7
Full
Feb 14
Last Quarter
Feb 21
New

Hourly Weather History & Observations

Time (EST) Temp. Windchill Dew Point Humidity Pressure Visibility Wind Dir Wind Speed Gust Speed Precip Events Conditions
12:15 AM 28.6 °F - 15.6 °F 58% 30.24 in 10.0 mi Calm Calm - N/A   Clear
12:35 AM 27.0 °F 23.0 °F 16.2 °F 64% 30.24 in 10.0 mi South 3.5 mph - N/A   Clear
12:55 AM 26.4 °F - 16.3 °F 66% 30.24 in 10.0 mi Calm Calm - N/A   Clear
1:15 AM 26.8 °F - 16.5 °F 65% 30.23 in 10.0 mi Calm Calm - N/A   Clear
1:35 AM 27.1 °F 23.2 °F 16.2 °F 63% 30.24 in 10.0 mi SW 3.5 mph - N/A   Clear
1:55 AM 27.7 °F - 16.0 °F 62% 30.24 in 10.0 mi Calm Calm - N/A   Clear
2:15 AM 27.3 °F - 16.3 °F 63% 30.24 in 10.0 mi Calm Calm - N/A   Clear
2:35 AM 25.3 °F 21.1 °F 16.7 °F 70% 30.24 in 10.0 mi South 3.5 mph - N/A   Clear
3:15 AM 24.8 °F - 18.0 °F 75% 30.25 in 10.0 mi Calm Calm - N/A   Clear
3:35 AM 24.4 °F 20.1 °F 17.4 °F 75% 30.25 in 10.0 mi SSW 3.5 mph - N/A   Clear
3:55 AM 24.8 °F 20.5 °F 18.0 °F 75% 30.24 in 10.0 mi SSW 3.5 mph - N/A   Clear
4:15 AM 25.9 °F 21.7 °F 17.6 °F 71% 30.24 in 10.0 mi South 3.5 mph - N/A   Clear
4:35 AM 25.7 °F 21.5 °F 17.6 °F 71% 30.24 in 10.0 mi South 3.5 mph - N/A   Clear
4:55 AM 25.9 °F 19.2 °F 18.0 °F 72% 30.24 in 10.0 mi South 5.8 mph - N/A   Clear
5:35 AM 25.5 °F 19.9 °F 18.1 °F 74% 30.22 in 10.0 mi South 4.6 mph - N/A   Clear
5:55 AM 25.2 °F 19.5 °F 17.8 °F 74% 30.22 in 10.0 mi South 4.6 mph - N/A   Clear
6:15 AM 25.7 °F 18.0 °F 18.1 °F 73% 30.22 in 10.0 mi South 6.9 mph - N/A   Clear
6:55 AM 25.5 °F - 18.0 °F 73% 30.22 in 10.0 mi Calm Calm - N/A   Clear
7:15 AM 25.7 °F 21.5 °F 18.1 °F 73% 30.22 in 10.0 mi SSW 3.5 mph - N/A   Clear
7:35 AM 25.7 °F 21.5 °F 18.1 °F 73% 30.22 in 10.0 mi South 3.5 mph - N/A   Clear
7:55 AM 26.2 °F 22.1 °F 18.3 °F 72% 30.21 in 10.0 mi South 3.5 mph - N/A   Scattered Clouds
8:15 AM 27.1 °F 20.7 °F 18.5 °F 70% 30.20 in 10.0 mi South 5.8 mph - N/A   Clear
8:35 AM 28.0 °F 20.8 °F 18.9 °F 68% 30.20 in 10.0 mi SSW 6.9 mph - N/A   Clear
8:55 AM 29.5 °F 23.4 °F 19.2 °F 66% 30.20 in 10.0 mi SSW 5.8 mph - N/A   Clear
9:15 AM 31.3 °F 23.3 °F 19.2 °F 61% 30.20 in 10.0 mi SSW 9.2 mph - N/A   Clear
9:35 AM 32.5 °F 24.8 °F 19.0 °F 58% 30.19 in 10.0 mi SSW 9.2 mph - N/A   Clear
9:55 AM 34.5 °F 26.2 °F 18.5 °F 52% 30.19 in 10.0 mi SW 11.5 mph 18.4 mph N/A   Clear
10:15 AM 35.1 °F 27.9 °F 17.4 °F 49% 30.19 in 10.0 mi SW 9.2 mph 18.4 mph N/A   Scattered Clouds
10:35 AM 36.1 °F 26.9 °F 17.2 °F 46% 30.18 in 10.0 mi SW 15.0 mph 20.7 mph N/A   Scattered Clouds
10:55 AM 38.3 °F 30.9 °F 16.5 °F 41% 30.18 in 10.0 mi SW 11.5 mph 21.9 mph N/A   Scattered Clouds
11:15 AM 39.4 °F 30.4 °F 16.7 °F 40% 30.17 in 10.0 mi SW 17.3 mph 26.5 mph N/A   Clear
11:35 AM 40.1 °F 31.6 °F 16.7 °F 39% 30.17 in 10.0 mi SW 16.1 mph 28.8 mph N/A   Clear
11:55 AM 40.6 °F 33.4 °F 17.4 °F 39% 30.15 in 10.0 mi SW 12.7 mph 26.5 mph N/A   Clear
12:15 PM 41.7 °F 34.8 °F 17.1 °F 37% 30.13 in 10.0 mi SW 12.7 mph 27.6 mph N/A   Clear
12:35 PM 42.6 °F 34.3 °F 18.1 °F 37% 30.11 in 10.0 mi WSW 18.4 mph 25.3 mph N/A   Clear
12:55 PM 43.0 °F 33.8 °F 16.7 °F 35% 30.09 in 10.0 mi WSW 23.0 mph 31.1 mph N/A   Clear
1:15 PM 44.6 °F 37.8 °F 17.4 °F 34% 30.08 in 10.0 mi SW 15.0 mph 26.5 mph N/A   Clear
1:35 PM 44.8 °F 37.4 °F 16.9 °F 33% 30.06 in 10.0 mi SW 17.3 mph 26.5 mph N/A   Clear
1:55 PM 45.5 °F 38.3 °F 16.5 °F 31% 30.04 in 10.0 mi SW 17.3 mph 28.8 mph N/A   Clear
2:15 PM 46.2 °F 38.7 °F 16.0 °F 30% 30.03 in 10.0 mi WSW 19.6 mph 29.9 mph N/A   Clear
2:35 PM 46.6 °F - 16.5 °F 30% 30.02 in 10.0 mi SW 15.0 mph 28.8 mph N/A   Clear
2:55 PM 46.4 °F 40.1 °F 16.5 °F 30% 30.02 in 10.0 mi SW 15.0 mph 25.3 mph N/A   Clear
3:15 PM 46.4 °F 38.3 °F 15.4 °F 29% 30.01 in 10.0 mi WSW 23.0 mph 29.9 mph N/A   Clear
3:35 PM 46.8 °F - 16.2 °F 29% 30.00 in 10.0 mi WSW 29.9 mph 38.0 mph N/A   Scattered Clouds
3:55 PM 45.5 °F 37.8 °F 16.3 °F 31% 30.01 in 10.0 mi WSW 19.6 mph 28.8 mph N/A   Mostly Cloudy
4:15 PM 45.5 °F 37.3 °F 16.0 °F 31% 30.02 in 10.0 mi WSW 21.9 mph 39.1 mph N/A   Overcast
4:35 PM 45.0 °F 36.2 °F 17.4 °F 33% 30.02 in 10.0 mi West 24.2 mph 33.4 mph N/A   Overcast
4:55 PM 44.4 °F 35.3 °F 18.3 °F 35% 30.04 in 10.0 mi West 25.3 mph 46.0 mph N/A   Mostly Cloudy
5:15 PM 42.8 °F 33.8 °F 21.0 °F 42% 30.06 in 10.0 mi WNW 21.9 mph 38.0 mph N/A   Overcast
5:35 PM 37.6 °F 28.1 °F 26.4 °F 64% 30.10 in 10.0 mi NW 17.3 mph 28.8 mph N/A   Overcast
5:55 PM 36.5 °F 26.3 °F 25.5 °F 64% 30.12 in 10.0 mi WNW 18.4 mph 28.8 mph N/A   Overcast
6:15 PM 35.1 °F 24.5 °F 25.0 °F 67% 30.15 in 10.0 mi WNW 18.4 mph 29.9 mph N/A   Mostly Cloudy
6:35 PM 34.7 °F 25.5 °F 22.8 °F 62% 30.16 in 10.0 mi WNW 13.8 mph 27.6 mph N/A Snow Light Snow
6:55 PM 34.7 °F 24.0 °F 19.9 °F 55% 30.17 in 10.0 mi WNW 18.4 mph 24.2 mph N/A   Scattered Clouds
7:15 PM 34.7 °F 25.5 °F 18.3 °F 51% 30.19 in 10.0 mi WNW 13.8 mph 21.9 mph N/A   Mostly Cloudy
7:35 PM 34.5 °F 26.2 °F 17.2 °F 49% 30.20 in 10.0 mi WNW 11.5 mph 21.9 mph N/A   Mostly Cloudy
7:55 PM 33.8 °F 24.8 °F 16.7 °F 50% 30.22 in 10.0 mi WNW 12.7 mph 18.4 mph N/A   Scattered Clouds
8:15 PM 33.1 °F 23.9 °F 17.4 °F 53% 30.22 in 10.0 mi WNW 12.7 mph 20.7 mph N/A   Clear
8:35 PM 32.4 °F 26.0 °F 18.1 °F 56% 30.23 in 10.0 mi WNW 6.9 mph 23.0 mph N/A   Clear
8:55 PM 32.0 °F 23.6 °F 18.3 °F 57% 30.24 in 10.0 mi WNW 10.4 mph 17.3 mph N/A   Clear
9:15 PM 31.8 °F 24.6 °F 18.3 °F 57% 30.25 in 10.0 mi WNW 8.1 mph - N/A   Clear
9:35 PM 31.5 °F 23.5 °F 18.3 °F 58% 30.25 in 10.0 mi WNW 9.2 mph - N/A   Clear
9:55 PM 30.9 °F 22.8 °F 18.1 °F 59% 30.26 in 10.0 mi WNW 9.2 mph - N/A   Clear
10:15 PM 30.6 °F 25.8 °F 17.6 °F 59% 30.26 in 10.0 mi West 4.6 mph - N/A   Clear
10:35 PM 28.8 °F 23.7 °F 17.6 °F 63% 30.27 in 10.0 mi West 4.6 mph - N/A   Clear
10:55 PM 28.9 °F 25.2 °F 17.4 °F 62% 30.27 in 10.0 mi West 3.5 mph - N/A   Clear
11:15 PM 27.7 °F - 17.6 °F 66% 30.28 in 10.0 mi Calm Calm - N/A   Clear
11:35 PM 26.8 °F - 17.4 °F 68% 30.29 in 10.0 mi Calm Calm - N/A   Clear
11:55 PM 26.6 °F - 18.1 °F 70% 30.29 in 10.0 mi Calm Calm - N/A   Clear